Regional Weather Roundup
Issued by NWS

Home | Current Version | Previous Version | Graphics & Text | Print | Product List | Glossary Off
Versions: 1 2 3 4 5 6 7 8 9 10 11 12 13 14 15 16 17 18 19 20 21 22 23 24 25 26 27 28 29 30 31 32 33 34 35 36 37 38 39 40 41 42 43 44 45 46 47 48 49 50

000
ASUS43 KMKX 210900
RWRWI

WISCONSIN REGIONAL WEATHER ROUNDUP
NATIONAL WEATHER SERVICE MILWAUKEE/SULLIVAN WI
300 AM CST TUE FEB 21 2017

NOTE: "FAIR" INDICATES FEW OR NO CLOUDS BELOW 12,000 FEET WITH NO
SIGNIFICANT WEATHER AND/OR OBSTRUCTIONS TO VISIBILITY.

WIZ001-002-006>008-014>016-023>028-211000-
NORTHWEST WISCONSIN

CITY           SKY/WX    TMP DP  RH WIND       PRES   REMARKS
SUPERIOR ARPT  PTCLDY    37  34  90 W13       29.78R WCI  29
ASHLAND        CLOUDY    40  37  89 W14G25    29.76R WCI  32
HAYWARD        CLOUDY    39  36  89 W9        29.81R WCI  33
SIREN          CLOUDY    38  36  92 W8        29.85R WCI  32
CUMBERLAND     CLOUDY    36  34  93 W15       29.83R WCI  26
RICE LAKE      CLOUDY    40  38  93 W12G18    29.85R WCI  32
CHETEK         CLOUDY    40  38  94 W8        29.84R WCI  35
LADYSMITH      CLOUDY    43  42  98 W12       29.81R
EAU CLAIRE     NOT AVBL
MENOMONIE      CLOUDY    41  39  91 W9        29.88R
NEW RICHMOND   CLOUDY    38  37  98 W12       29.87R WCI  30
OSCEOLA        NOT AVBL
$$

WIZ003>005-009-010-017-018-211000-
NORTH CENTRAL WISCONSIN

CITY           SKY/WX    TMP DP  RH WIND       PRES   REMARKS
MANITOWISH WTR CLOUDY    44  44 100 W9        29.71R
ARBOR VITAE    CLOUDY    48  47  95 W13G23    29.72R
WOODRUFF       CLOUDY    48  47  95 W13G23    29.72R
RHINELANDER    CLOUDY    47  47 100 W17       29.74R
EAGLE RIVER    DRIZZLE   47  47 100 W18       29.69R
LAND O LAKES   CLOUDY    48  48 100 W12G23    29.71R
PHILLIPS       CLOUDY    44  43  97 W5        29.76R
TOMAHAWK       CLOUDY    47  46  97 W13       29.75R FOG
MEDFORD        CLOUDY    44  43  96 W16G25    29.79R
MERRILL        NOT AVBL
$$

WIZ029-030-035-036-043>047-211000-
CENTRAL WISCONSIN

CITY           SKY/WX    TMP DP  RH WIND       PRES   REMARKS
WAUSAU         CLOUDY    48  46  93 W17       29.76R
MOSINEE        CLOUDY    46  46 100 W13       29.79R
MARSHFIELD     CLOUDY    45  42  89 W15       29.80R
STEVENS POINT  CLOUDY    49  48  95 W15G21    29.79R
WAUPACA        CLOUDY    55  55  97 SW8       29.78R FOG
WAUTOMA        CLOUDY    54  53  97 W12G17    29.81R
WISC RAPIDS    CLOUDY    50  48  93 W8        29.82R
CAMP DOUGLAS   NOT AVBL
$$

WIZ011>013-019>022-031-037>040-048>050-211000-
NORTHEAST WISCONSIN

CITY           SKY/WX    TMP DP  RH WIND       PRES   REMARKS
ANTIGO         CLOUDY    46  46 100 W15G21    29.74R
SHAWANO        CLOUDY    54  53  95 SW6       29.75S FOG
OCONTO         MOCLDY    49  47  96 SW3       29.74F
STURGEON BAY   CLOUDY    43  42  97 S14       29.75F FOG
GREEN BAY      CLOUDY    53  53 100 SW13      29.76F
MANITOWOC      NOT AVBL
APPLETON       CLOUDY    52  52 100 SW16      29.76F
CLINTONVILLE   CLOUDY    52  50  93 SW8       29.76S FOG
OSHKOSH        CLOUDY    52  51  97 S12       29.79S
$$

WIZ032>034-041-042-053>061-211000-
SOUTHWEST WISCONSIN

CITY           SKY/WX    TMP DP  RH WIND       PRES   REMARKS
LA CROSSE      MOCLDY    44  40  85 W9        29.88R
SPARTA         CLOUDY    46  43  91 W6        29.88R
VIROQUA        CLOUDY    45  44  97 W8        29.87R
BOSCOBEL       CLOUDY    49  45  86 SW7       29.89R
PRAIRIE DU CHI PTCLDY    44  41  90 W6        29.90R
PLATTEVILLE    CLOUDY    50  50 100 W13       29.89R
$$

WIZ056-057-062-063-064-067-068-211000-
SOUTH CENTRAL WISCONSIN

CITY           SKY/WX    TMP DP  RH WIND       PRES   REMARKS
REEDSBURG      MOCLDY    51  49  93 W17       29.84R
BARABOO/DELLS  CLOUDY    55  51  88 W10G18    29.83R
LONE ROCK      MOCLDY    53  49  86 W18G24    29.86R
MINERAL POINT  CLOUDY    54  54 100 W13       29.87R
MADISON        CLOUDY    55  54  96 SW7       29.84R
MIDDLETON        N/A     57  57 100 W16       29.84S
WATERTOWN      CLOUDY    53  53 100 S9        29.81F FOG
MONROE         CLOUDY    54  52  94 SW12      29.85S FOG
JANESVILLE     CLOUDY    55  55 100 SW6       29.86F FOG
$$

WIZ051-052-058>065-066-070>072-211000-
SOUTHEAST WISCONSIN

CITY           SKY/WX    TMP DP  RH WIND       PRES   REMARKS
MILWAUKEE      LGT RAIN  55  51  86 SW12      29.86F
WAUKESHA       LGT RAIN  52  50  93 SW8       29.86F
MILWAUKEE/TIMM RAIN      52  50  93 SW7       29.86F
RACINE         LGT RAIN  54  50  86 SW7       29.88F
KENOSHA        CLOUDY    54  50  86 SW6       29.88F
FOND DU LAC    CLOUDY    55  51  86 SW9G21    29.80F
SHEBOYGAN      CLOUDY    47  45  93 S10       29.79F FOG
WEST BEND      CLOUDY    52  52 100 S9        29.82F FOG
JUNEAU         CLOUDY    53  52  98 SW12      29.84F FOG
$$

LSZ147-162-211000-
LAKE SUPERIOR

STATION/POSITION TIME  TEMP    WIND        PRES    WAVE
                       AIR SEA DIR/SP/G            HT/PER
                 (UTC) (F)     (DEG/KT/KT) (MB)    (FT/S)
DEVILS ISLAND    0800   38     230/ 25/ 28 1005.2R
PORT WING        0840   38     230/ 12/ 17 1008.5R
SAXON HARBOR     0830   46     250/ 11/ 15 1006.4R
$$

LMZ867-665-643>646-211000-
LAKE MICHIGAN

STATION/POSITION TIME  TEMP    WIND        PRES    WAVE
                       AIR SEA DIR/SP/G            HT/PER
                 (UTC) (F)     (DEG/KT/KT) (MB)    (FT/S)
CHAMBERS ISLAND  0840   45     150/  8/ 15 1006.4F
NORTHPORT PIER   0840   43     170/ 11/ 17 1007.5F
SISTER BAY       0805   43     170/ 24/ 32   N/A
KEWAUNEE LAKESHO 0830   39     180/ 15/ 18 1008.3F
SHEBOYGAN LAKESH 0800   40     180/ 18/ 19 1010.5F
PORT WASHINGTON  0840   41     190/  6/  8 1011.5F
MILWAUKEE LAKESH 0830   55     230/  9/ 10   N/A
KENOSHA   LAKESH 0800   53     220/  8/ 11 1012.2
$$

TC  - TEMPERATURE IN CELSIUS
VSB - VISIBILITY IN STATUTE MILES
WCI - WIND CHILL INDEX
HX  - HEAT INDEX





USA.gov is the U.S. government's official web portal to all federal, state and local government web resources and services.